Regional Weather Roundup
Issued by NWS

Home | Current Version | Previous Version | Graphics & Text | Print | Product List | Glossary Off
Versions: 1 2 3 4 5 6 7 8 9 10 11 12 13 14 15 16 17 18 19 20 21 22 23 24 25 26 27 28 29 30 31 32 33 34 35 36 37 38 39 40 41 42 43 44 45 46 47 48 49 50

000
ASUS43 KMKX 290611
RWRWI

WISCONSIN REGIONAL WEATHER ROUNDUP
NATIONAL WEATHER SERVICE MILWAUKEE/SULLIVAN WI
100 AM CDT FRI AUG 29 2014

NOTE: "FAIR" INDICATES FEW OR NO CLOUDS BELOW 12,000 FEET WITH NO
SIGNIFICANT WEATHER AND/OR OBSTRUCTIONS TO VISIBILITY.

WIZ001-002-006>008-014>016-023>028-290700-
NORTHWEST WISCONSIN

CITY           SKY/WX    TMP DP  RH WIND       PRES   REMARKS
SUPERIOR ARPT  CLOUDY    61  59  91 NE8       29.94F
6HR MIN TEMP:  61; 6HR MAX TEMP:  62;

ASHLAND        FAIR      58  57  97 CALM      29.97F
6HR MIN TEMP:  57; 6HR MAX TEMP:  65;

HAYWARD        CLOUDY    65  61  87 SE12      29.96F
6HR MIN TEMP:  65; 6HR MAX TEMP:  68;

SIREN          CLOUDY    65  62  89 S7        29.93S
6HR MIN TEMP:  65; 6HR MAX TEMP:  68;

RICE LAKE      CLOUDY    64  61  91 SE13G18   29.96F
6HR MIN TEMP:  63; 6HR MAX TEMP:  66;

LADYSMITH      CLOUDY    63  60  90 SE9       30.00F
6HR MIN TEMP:  63; 6HR MAX TEMP:  67;

EAU CLAIRE     CLOUDY    63  60  90 SE12      29.94F
6HR MIN TEMP:  63; 6HR MAX TEMP:  67; 6HR PCP:  0.07;

MENOMONIE      CLOUDY    64  62  94 E12       29.94F
6HR MIN TEMP:  64; 6HR MAX TEMP:  66; 6HR PCP:  0.14;

NEW RICHMOND   HVY RAIN  65  64  96 SE9       29.92S
6HR MIN TEMP:  65; 6HR MAX TEMP:  66;

OSCEOLA        CLOUDY    66  66 100 SE8       29.93F
6HR MIN TEMP:  65; 6HR MAX TEMP:  67;

$$

WIZ003>005-009-010-017-018-290700-
NORTH CENTRAL WISCONSIN

CITY           SKY/WX    TMP DP  RH WIND       PRES   REMARKS
WOODRUFF       CLOUDY    62  57  83 S7        30.03S
6HR MIN TEMP:  62; 6HR MAX TEMP:  67;

RHINELANDER    CLOUDY    59  56  89 SE6       30.04F
6HR MIN TEMP:  59; 6HR MAX TEMP:  65; 6HR PCP:  0.01;

EAGLE RIVER    CLOUDY    61  55  79 S5        30.03F
6HR MIN TEMP:  61; 6HR MAX TEMP:  65;

LAND O LAKES   CLOUDY    62  58  86 S6        30.04S
6HR MIN TEMP:  62; 6HR MAX TEMP:  66;

PHILLIPS       CLOUDY    62  59  90 S8        30.00F
6HR MIN TEMP:  62; 6HR MAX TEMP:  66;

TOMAHAWK       LGT RAIN  59  57  92 SE3       30.03F
6HR MIN TEMP:  59; 6HR MAX TEMP:  64;

MEDFORD        DRIZZLE   57  57  97 SE9       30.02S
6HR MIN TEMP:  57; 6HR MAX TEMP:  63; 6HR PCP:  0.07;

MERRILL        RAIN      59  58  94 S6        30.03S
6HR MIN TEMP:  59; 6HR MAX TEMP:  65;

$$

WIZ029-030-035-036-043>047-290700-
CENTRAL WISCONSIN

CITY           SKY/WX    TMP DP  RH WIND       PRES   REMARKS
WAUSAU         LGT RAIN  58  57  97 S10       30.03S FOG
6HR MIN TEMP:  58; 6HR MAX TEMP:  65; 6HR PCP:  0.17;

MOSINEE        LGT RAIN  54  54 100 SE8G17    30.05S
MARSHFIELD     LGT RAIN  58  56  93 SE9       30.02S FOG
6HR MIN TEMP:  58; 6HR MAX TEMP:  67;

STEVENS POINT  RAIN      56  55  95 E3        30.03F
6HR MIN TEMP:  56; 6HR MAX TEMP:  64; 6HR PCP:  0.14;

WAUPACA        RAIN      63  61  92 SW3       30.04R
6HR MIN TEMP:  62; 6HR MAX TEMP:  67; 6HR PCP:  0.02;

WAUTOMA        CLOUDY    60  58  93 CALM      30.02F
6HR MIN TEMP:  60; 6HR MAX TEMP:  66; 6HR PCP: TRACE;

WISC RAPIDS    LGT RAIN  57  56  96 E7        30.02F
6HR MIN TEMP:  56; 6HR MAX TEMP:  66; 6HR PCP:  0.39;

CAMP DOUGLAS   MOCLDY    60  60 100 E6        29.98F
6HR MIN TEMP:  60; 6HR MAX TEMP:  67; 6HR PCP:  0.03;

$$

WIZ011>013-019>022-031-037>040-048>050-290700-
NORTHEAST WISCONSIN

CITY           SKY/WX    TMP DP  RH WIND       PRES   REMARKS
ANTIGO         CLOUDY    58  56  93 SE8       30.04F
6HR MIN TEMP:  58; 6HR MAX TEMP:  63; 6HR PCP:  0.01;

STURGEON BAY   MOCLDY    63  55  77 SE6       30.06F
6HR MIN TEMP:  61; 6HR MAX TEMP:  63;

GREEN BAY      LGT RAIN  63  58  83 S6        30.04F
6HR MIN TEMP:  62; 6HR MAX TEMP:  65; 6HR PCP: TRACE;

MANITOWOC      CLOUDY    65  59  81 SE8       30.05F
6HR MIN TEMP:  63; 6HR MAX TEMP:  65; 6HR PCP: TRACE;

APPLETON       CLOUDY    63  55  77 E6        30.03F
CLINTONVILLE   DRIZZLE   61  57  88 CALM      30.04R
OSHKOSH        LGT RAIN  64  58  80 SE8       30.02F
6HR MIN TEMP:  63; 6HR MAX TEMP:  65; 6HR PCP:  0.01;

$$

WIZ032>034-041-042-053>061-290700-
SOUTHWEST WISCONSIN

CITY           SKY/WX    TMP DP  RH WIND       PRES   REMARKS
LA CROSSE      CLOUDY    66  62  87 E7        29.94F
6HR MIN TEMP:  66; 6HR MAX TEMP:  68; 6HR PCP:  0.23;

SPARTA         CLOUDY    62  59  91 CALM      29.98S
6HR MIN TEMP:  62; 6HR MAX TEMP:  66; 6HR PCP:  0.16;

VIROQUA        CLOUDY    63  62  99 SE8       29.97F
6HR MIN TEMP:  63; 6HR MAX TEMP:  65; 6HR PCP:  0.10;

BOSCOBEL       MOCLDY    68  60  75 CALM      29.97F
6HR MIN TEMP:  68; 6HR MAX TEMP:  72; 6HR PCP: TRACE;

PRAIRIE DU CHI CLOUDY    68  63  84 E5        29.95F
6HR MIN TEMP:  68; 6HR MAX TEMP:  72;

PLATTEVILLE    FAIR      64  62  94 CALM      29.99F
6HR MIN TEMP:  64; 6HR MAX TEMP:  71;

$$

WIZ056-057-062-063-064-067-068-290700-
SOUTH CENTRAL WISCONSIN

CITY           SKY/WX    TMP DP  RH WIND       PRES   REMARKS
BARABOO/DELLS  CLOUDY    63  57  82 SE7       29.98F
6HR MIN TEMP:  61; 6HR MAX TEMP:  67; 6HR PCP:  0.02;

LONE ROCK      FAIR      68  59  73 E6        29.98F
6HR MIN TEMP:  68; 6HR MAX TEMP:  75;

WATERTOWN      CLOUDY    64  60  86 SE8       30.01F
6HR MIN TEMP:  62; 6HR MAX TEMP:  65;

MADISON        MOCLDY    65  60  84 SE7       29.99F
6HR MIN TEMP:  65; 6HR MAX TEMP:  69; 6HR PCP: TRACE;

MIDDLETON      MOCLDY    66  60  81 SE7       30.00F
6HR MIN TEMP:  66; 6HR MAX TEMP:  70;

MONROE         FAIR      63  61  94 SE5       30.00S
JANESVILLE     CLOUDY    66  63  88 SE7       29.99F
$$

WIZ051-052-058>065-066-070>072-290700-
SOUTHEAST WISCONSIN

CITY           SKY/WX    TMP DP  RH WIND       PRES   REMARKS
MILWAUKEE      MOCLDY    68  61  78 SE10      30.02F
6HR MIN TEMP:  66; 6HR MAX TEMP:  68;

WAUKESHA       FAIR      63  59  88 E7        30.03F
MILWAUKEE/TIMM CLOUDY    68  57  68 SE5       30.03F
RACINE         FAIR      70  63  78 SE6       30.04F
6HR MIN TEMP:  68; 6HR MAX TEMP:  71;

BURLINGTON     FAIR      61  59  94 CALM      30.01F
6HR MIN TEMP:  61; 6HR MAX TEMP:  64;

KENOSHA        FAIR      69  65  86 E8        30.02F
6HR MIN TEMP:  64; 6HR MAX TEMP:  69;

FOND DU LAC    LGT RAIN  64  58  80 SE10      30.02F
6HR MIN TEMP:  63; 6HR MAX TEMP:  66; 6HR PCP: TRACE;

SHEBOYGAN      CLOUDY    64  59  83 SE5       30.04F
6HR MIN TEMP:  62; 6HR MAX TEMP:  65; 6HR PCP: TRACE;

WEST BEND      CLOUDY    63  57  82 E3        30.03F
JUNEAU         MOCLDY    64  58  82 E14       30.01F
6HR MIN TEMP:  61; 6HR MAX TEMP:  64;

$$

LSZ147-162-290700-
LAKE SUPERIOR

STATION/POSITION TIME  TEMP    WIND        PRES    WAVE
                       AIR SEA DIR/SP/G            HT/PER
                 (UTC) (F)     (DEG/KT/KT) (MB)    (FT/S)
W MID LAKE BUOY  0550   60 57  180/  8/  8 1014.5F   1
DEVILS ISLAND    0600   63     220/  3/  3 1014.4F
PORT WING        0500   63      CALM  /  1 1014.6
SAXON HARBOR     0500   66      CALM  /  7 1014.9F
$$

LMZ867-665-643>646-290700-
LAKE MICHIGAN

STATION/POSITION TIME  TEMP    WIND        PRES    WAVE
                       AIR SEA DIR/SP/G            HT/PER
                 (UTC) (F)     (DEG/KT/KT) (MB)    (FT/S)
N MID LAKE BUOY  0550   65 65  120/ 14/ 16 1018.1F   1/ 3
NORTHPORT PIER   0500   65     130/ 12/ 14 1017.9F
SISTER BAY       0526   63     150/  7/ 10   N/A
ALGOMA LAKESHORE 0538          160/ 11/ 12   N/A
KEWAUNEE LAKESHO 0500   65     120/  7/  9 1016.9F
SHEBOYGAN LAKESH 0600   67 69  130/ 12/ 14 1017.3F
ATWATER BUOY     0600   70     150/ 16/ 17 1017.5F
MILWAUKEE LAKESH 0500   69     130/ 12/ 14   N/A
S MID LAKE BUOY  0550   69 69  130/ 16/ 19 1016.7F   2/ 4
KENOSHA   LAKESH 0600   71     130/ 14/ 16 1015.9F
$$

TC  - TEMPERATURE IN CELSIUS
VSB - VISIBILITY IN STATUTE MILES
WCI - WIND CHILL INDEX
HX  - HEAT INDEX



USA.gov is the U.S. government's official web portal to all federal, state and local government web resources and services.